Regional Weather Roundup
Issued by NWS Wakefield, VA

Home | Current Version | Previous Version | Graphics & Text | Print | Product List | Glossary On
Versions: 1 2 3 4 5 6 7 8 9 10 11 12 13 14 15 16 17 18 19 20 21 22 23 24 25 26 27 28 29 30 31 32 33 34 35 36 37 38 39 40 41 42 43 44 45 46 47 48 49 50
000
ASUS41 KAKQ 310312
RWRAKQ

REGIONAL WEATHER ROUNDUP
NATIONAL WEATHER SERVICE WAKEFIELD VA
1100 PM EDT SUN AUG 30 2015

Note: "fair" indicates few or no clouds below 12,000 feet with no
significant weather and/or obstructions to visibility. * = Denotes
station may not report precipitation (e.g., rain,snow,etc.),
thunder or fog.

VAZ042-051-052>054-056-310400-
NORTHERN VIRGINIA

CITY           SKY/WX    TMP DP  RH WIND       PRES   REMARKS
WASH NATIONAL  CLOUDY    80  67  64 S9        30.09S
DULLES         CLOUDY    77  67  71 S7        30.09S
FORT BELVOIR   CLOUDY    74  69  82 SE1       30.09S
QUANTICO       CLOUDY    78  68  71 SW7       30.10S
FREDERICKSBRG* CLOUDY    78  66  67 S3        30.09S
STAFFORD*      CLOUDY    76  63  62 CALM      30.13S
WARRENTON      CLOUDY    76  68  76 S3        30.10R
CULPEPER*      CLOUDY    73  67  83 CALM      30.10S
MANASSAS*      CLOUDY    73  70  88 CALM      30.09S
LEESBURG*      CLOUDY    77  72  83 SW10      30.09F
WINCHESTER     CLOUDY    75  63  64 CALM      30.10S
FRONT ROYAL*   FAIR      75  63  64 S5        30.09S
LURAY*         FAIR      75  63  64 CALM      30.12S
$$

VAZ048-049-060>072-079>083-310400-
CENTRAL AND SOUTH CENTRAL VIRGINIA

CITY           SKY/WX    TMP DP  RH WIND       PRES   REMARKS
RICHMOND       CLOUDY    76  66  71 S3        30.11S
CHESTERFIELD*  CLOUDY    75  57  53 CALM      30.13S
PETERSBURG*    CLOUDY    74  71  90 CALM      30.12S
HANOVER        CLOUDY    72  67  84 CALM      30.12S
TAPPAHANNOCK*  CLOUDY    73  62  68 CALM      30.12R
QUINTON*       FAIR      74  66  75 CALM      30.11S
CHARLOTTSVILLE CLOUDY    76  67  73 CALM      30.11S
GORDONSVILLE*  CLOUDY    72  69  91 CALM      30.10S
ORANGE*        CLOUDY    75  68  78 S6        30.12S
LOUISA*        CLOUDY    75  64  69 CALM      30.11S
BUMPASS*       FAIR      74  64  71 SE5       30.11S
FARMVILLE*     CLOUDY    74  65  74 CALM      30.11S
CREWE*         CLOUDY   N/A N/A N/A CALM      30.12S
FORT PICKETT*  CLOUDY    73  67  81 S10       30.13S
CHASE CITY*    CLOUDY    76  71  85 CALM      30.14S
CLARKSVILLE*   CLOUDY    72  68  88 SW3       30.13S
SOUTH HILL*    CLOUDY    71  69  93 CALM      30.19S
LAWRENCEVILLE* CLOUDY    72  70  94 CALM      30.13S
EMPORIA*       CLOUDY    72  68  88 CALM      30.13F
$$

VAZ088>098-310400-
SOUTHEAST VIRGINIA

CITY           SKY/WX    TMP DP  RH WIND       PRES   REMARKS
NORFOLK        CLOUDY    76  67  73 S7        30.12R
VIRGINIA BEACH CLOUDY    77  67  71 S5        30.11S
NORFOLK NAVAL  CLOUDY    77  68  73 S6        30.13R
WEST POINT*    CLOUDY    77  65  66 S3        30.12S
SALUDA*        FAIR      75  64  69 S5        30.10S
NEWPORT NEWS   CLOUDY    78  70  76 S7        30.12R
LANGLEY AFB    CLOUDY    77  70  79 SW5       30.11R
FORT EUSTIS    CLOUDY    77  74  89 S6        30.10S
WILLIAMSBURG*  CLOUDY    81  72  74 S7        30.12S
HR EXEC AP*      N/A     73  70  88 S5        30.14S
FRANKLIN*      CLOUDY    73  69  86 S5        30.12F
WAKEFIELD      CLOUDY    75  67  76 S3        30.12S
$$

VAZ020-022-025-037-045-310400-
WEST CENTRAL AND SOUTHWEST VIRGINIA

CITY           SKY/WX    TMP DP  RH WIND       PRES   REMARKS
STAUNTON*      CLOUDY    75  65  71 SW5       30.17S
WAYNESBORO*    CLOUDY    74  64  70 CALM      30.16S
HOT SPRINGS VA CLOUDY    67  53  58 S6        30.26F
LYNCHBURG      CLOUDY    70  65  84 CALM      30.15F
DANVILLE       CLOUDY    74  67  78 S3        30.15R
SOUTH BOSTON*  CLOUDY    72  68  88 CALM      30.14R
MARTINSVILLE   CLOUDY    70  70 100 CALM      30.18S
ROANOKE        CLOUDY    73  67  81 CALM      30.17S
BLACKSBURG     CLOUDY    69  65  85 CALM      30.23F
DUBLIN*        CLOUDY    71  65  83 CALM      30.21F
MARION*        CLOUDY    67  62  82 CALM      30.24S
HILLSVILLE*    CLOUDY    66  62  85 S3        30.22F
RICHLANDS*     CLOUDY    68  29  23 SE3       30.20F
WISE*          CLOUDY    70  64  83 S3        30.22S
ABINGDON*      CLOUDY    72  58  62 CALM      30.18S
$$

MDZ021>025-VAZ099-100-310400-
SOUTHERN MARYLAND AND THE DELMARVA PENINSULA

CITY           SKY/WX    TMP DP  RH WIND       PRES   REMARKS
PATUXENT RIVER CLOUDY    76  65  68 SW7       30.09F
BAY BRIDGE APT   N/A     79  63  57 S6        30.08F
LEONARDTOWN    CLOUDY    75  63  64 CALM      30.12S
DOVER          CLOUDY    76  69  78 S9        30.07F
GEORGETOWN     CLOUDY    74  67  78 SW7       30.11S
EASTON         NOT AVBL
CAMBRIDGE      CLOUDY    79  66  65 S3        30.10S
SALISBURY      CLOUDY    73  67  81 SW3       30.10S
OCEAN CITY     CLOUDY    77  65  66 SW8       30.10F
WALLOPS ISLAND CLOUDY    75  69  81 S7        30.11F
ACCOMACK*      CLOUDY    70  57  64 S5        30.11S
$$

NCZ012>017-030>032-310400-
NORTH CENTRAL AND EASTERN NORTH CAROLINA

CITY           SKY/WX    TMP DP  RH WIND       PRES   REMARKS
ROANOKE RAPIDS FAIR      72  64  78 CALM      30.12F
RALEIGH        CLOUDY    73  65  75 SW6       30.14F
ELIZABETH CITY CLOUDY    75  72  90 S5        30.13S
AHOSKIE*       CLOUDY    72  66  82 CALM      30.12F
EDENTON*       CLOUDY    76  71  84 S7        30.13F
CURRITUCK*     CLOUDY    74  70  86 CALM      30.14S
KILL DEVIL HLS CLOUDY    76  70  82 CALM      30.12S
MANTEO         CLOUDY    77  73  86 SW6       30.13F
CAPE HATTERAS  CLOUDY    77  72  84 SW3       30.13F
TARBORO*       FAIR      76  65  70 SW5       30.14S
GOLDSBORO      CLOUDY    74  67  79 CALM      30.12F
WASHINGTON     CLOUDY    76  67  75 SW5       30.13F
GREENVILLE     CLOUDY    75  66  73 SW3       30.14F
NEW BERN       CLOUDY    73  69  87 CALM      30.14F
WILMINGTON     CLOUDY    72  69  90 CALM      30.12F
$$

VAZ048-310400-
ELSEWHERE

CITY           SKY/WX    TMP DP  RH WIND       PRES   REMARKS
HARRISBURG PA  CLOUDY    77  67  71 CALM      30.06F
BALTIMORE      CLOUDY    78  66  66 SW5       30.07F
ANNAPOLIS      CLOUDY    78  64  61 S5        30.07F
ANDREWS AFB    CLOUDY    77  65  66 S9        30.09S
PHILADELPHIA   CLOUDY    81  65  58 SW10      30.07S
HENDERSON NC   CLOUDY    73  63  70 CALM      30.15R
GREENSBORO     CLOUDY    73  62  68 S6        30.15S
ROCKY MOUNT    CLOUDY    75  65  70 SW5       30.13F
$$

VAZ100-310400-
MARINE

STATION/POSITION TIME  TEMP    WIND        PRES    WAVE   SWELL
                       AIR SEA DIR/SP/G            HT/PER HT/PER
                 (UTC) (F)     (DEG/KT/KT) (MB)    (FT/S) (FT/S)
15NM E FENWICK I 0250   78 78  210/ 16/ 17 1019.3R   3/10   2/10
THOMAS POINT MD  0200   79 79  200/ 15/ 17 1019.2R
GOOSES REEF MD   0300   80 79  220/ 12/ 14 1020.0R
POTOMAC MD       0300   79 79  220/ 10/ 12 1018.2F   1/ 2
STINGRAY PT      0300   80 79  190/ 10/ 12 1019.8S   1/ 2
JAMESTOWN VA     0300   76 81  170/  6/  8   N/A
CHESAPEAKE LGHT  0200   78     180/  6/  6 1020.4F
CAPE HENRY BUOY  0228      79                N/A     3/10   2/11
1ST LANDING BUOY 0300      79              1019.5R   1/ 5
CAPE CHARLES BUO 0226      80                N/A     2/11   2/11
OFFSHORE WE BUOY 0211      79                N/A     3/11   3/11
64NM E OF VA BCH 0250   77 78  160/  2/  2 1019.5F   3/10   3/10
44100 DUCK FRF   0224      78                N/A     3/11   2/11
44056 DUCK FRF   0211      79                N/A     3/11   2/11
DIAMOND SHLS NC  0250   79 83  260/  2/  4 1020.5F   3/10   3/10
CAPE LOOKOUT NC  0200   78     250/  2/  3 1020.5S
$$



USA.gov is the U.S. government's official web portal to all federal, state and local government web resources and services.